Showing default

LEMUR 2 TOMATOKECHUP, 60471

Orbit data source: Space-Track

LEMUR 2 TOMATOKECHUP, 60471 is an American payload satellite in SSO that was launched on Fri, 16 Aug 2024 UTC via an FALCON 9 launch vehicle from the Air Force Western Test Range (AFWTR). Payload-class satellites include a variety of spacecraft equipped with specific instruments for various scientific and technological missions. These include communications satellites like Starlink; space stations such as the ISS; scientific satellites like the Hubble; Earth observation satellites from companies like Planet Labs, Umbra, and HawkEye 360; GPS; miniature CubeSats for education and research; and military/defense satellites.

Loading next visibility...
Identifier
60471, 2024-149D
Orbit
SSO
Country
Flag of USUS
Related business
Manufacturer
Spire/Glasgow
Mission
Operational Commercial Communications
Bus & Motor
CUBESAT 16U, Unknown motor
Mass
22 kg wet, 22 kg dry
Launch date (UTC)
2024-08-16 (1 year ago)
Launch vehicle
FALCON 9
Launch site
Air Force Western Test Range (AFWTR)
Object type
Payload
Rocket body
Debris
Shape & HBR
Box + 4 Pan, 1.0 m
Radar Cross Section
0.326 m², Medium (>0.1 m² and < 1m²)

Expand to show TLE details & history
Last TLE update: 12 hours ago

TLE from 12 hours ago
0 LEMUR 2 TOMATOKECHUP
1 60471U 24149D   25258.48684505  .00010963  00000-0  39789-3 0  9998
2 60471  97.4058 335.8956 0003257 123.5220 236.6331 15.28486270 60096
Epoch: 2025-09-15T11:41Z
TLE epoch observation values (Epoch: 2025-09-15T11:41:03.412Z)
Latitude
-0.00004°
Longitude
165.94059°
Altitude
484.668 km
Speed
7.622 km/s
True Right ascension
22h 23m 34s
True Declination
0° 00' 00"
Sunlit
Object was in full shadow at epoch
Visualization orbit readout
Latitude
Unknown
Longitude
Unknown
Altitude
Unknown
Speed
Unknown
Apparent Right ascension
Unknown
Apparent Declination
Unknown
Sunlit
N/A
Visualization observer readout
Local Sidereal Time
16:15:10
Azimuth
Unknown
Elevation
Unknown
Doppler factor
Unknown
Orbital elements
Apogee altitude
479.524 km
Perigee altitude
475.058 km
Semi-major axis
6,855.428 km
Eccentricity
0.00033
Inclination
97.4058°
RAAN
335.8956°
Arg. of periapsis
123.522°
True anomaly
236.60194°
Mean anomaly
236.6331°
Eccentric anomaly
236.61752°
Mean motion
3.82377 °/min
Orbital period
94.15 mins
BSTAR
0.00039789
Loading maneuver chart data...
Computing Atmospheric mass density...
Loading historical data...
Loading historical data...
Loading historical data...
Loading historical data...
Loading historical data...
Loading historical data...
Loading historical data...

Documentation

Showing up to 5 results
|